User: anonymous   Login
Location: Radford
(37.1320°N, 80.5770°W)
Time: 19:38:38
(UTC-04:00)
Language:

Okean 1-7 - Orbit

View from above orbital plane
View from above orbital plane
View from above satellite
View from above satellite

Ground track
Ground track

The orbit data is extracted from the following two-line orbital elements,

1 23317U 94066A   14303.13160975  .00003034  00000-0  34456-3 0  6952
2 23317 082.5365 301.3866 0020637 017.4371 099.4016 14.85849102 83142
Epoch (UTC): 30 October 2014 03:09:31
Eccentricity: 0.0020637
inclination: 82.5365°
perigee height: 596 km
apogee height: 625 km
right ascension of ascending node: 301.3866°
argument of perigee: 17.4371°
revolutions per day: 14.85849102
mean anomaly at epoch: 99.4016°
orbit number at epoch: 8314

The dashed part of the orbit path shows where the satellite is in the earth's shadow,  

DLR